�������l�o���
Date,Time,MP-1(��Sv/h),MP-2(��Sv/h),MP-3(��Sv/h),MP-4(��Sv/h),MP-5(��Sv/h),MP-6(��Sv/h),MP-7(��Sv/h),MP-8(��Sv/h),����,����(m/s),���J
2024/05/07,00:00,0.521,0.796,0.498,0.993,0.721,0.320,0.563,0.525,��,8.8,�L
2024/05/07,00:10,0.522,0.796,0.498,0.992,0.720,0.320,0.563,0.525,��,8.0,��
2024/05/07,00:20,0.522,0.795,0.497,0.993,0.721,0.319,0.561,0.525,��,7.1,��
2024/05/07,00:30,0.522,0.796,0.497,0.993,0.720,0.320,0.563,0.524,��,7.6,��
2024/05/07,00:40,0.522,0.795,0.498,0.995,0.721,0.320,0.563,0.524,��쓌,8.2,��
2024/05/07,00:50,0.523,0.796,0.498,0.996,0.722,0.319,0.562,0.525,��,6.0,��
2024/05/07,01:00,0.521,0.795,0.498,0.992,0.720,0.320,0.564,0.523,��쓌,5.9,��
2024/05/07,01:10,0.522,0.797,0.498,0.993,0.720,0.321,0.563,0.524,��,6.5,��
2024/05/07,01:20,0.523,0.795,0.497,0.993,0.718,0.320,0.563,0.525,��,5.2,�L
2024/05/07,01:30,0.522,0.795,0.498,0.994,0.718,0.321,0.564,0.526,��,6.9,�L
2024/05/07,01:40,0.522,0.797,0.497,0.992,0.719,0.321,0.562,0.525,��,7.4,��
2024/05/07,01:50,0.522,0.794,0.496,0.995,0.721,0.319,0.563,0.524,��,5.3,��
2024/05/07,02:00,0.520,0.795,0.498,0.992,0.722,0.318,0.564,0.524,��,7.4,��
2024/05/07,02:10,0.521,0.794,0.497,0.994,0.719,0.319,0.563,0.524,��,7.9,��
2024/05/07,02:20,0.522,0.794,0.498,0.993,0.722,0.320,0.562,0.526,��,8.0,��
2024/05/07,02:30,0.522,0.797,0.497,0.993,0.719,0.320,0.562,0.524,��,6.2,��
2024/05/07,02:40,0.521,0.794,0.498,0.994,0.720,0.319,0.562,0.525,��,6.8,��
2024/05/07,02:50,0.521,0.793,0.497,0.993,0.720,0.320,0.562,0.524,��,9.0,��
2024/05/07,03:00,0.521,0.796,0.497,0.993,0.720,0.319,0.563,0.524,��,6.9,��
2024/05/07,03:10,0.522,0.794,0.497,0.993,0.719,0.320,0.563,0.525,��,5.6,��
2024/05/07,03:20,0.523,0.795,0.497,0.992,0.720,0.318,0.565,0.525,��쐼,6.2,��
2024/05/07,03:30,0.522,0.795,0.498,0.993,0.719,0.320,0.563,0.524,��쐼,6.9,��
2024/05/07,03:40,0.521,0.793,0.497,0.992,0.719,0.320,0.564,0.525,��쐼,7.3,�L
2024/05/07,03:50,0.522,0.796,0.498,0.994,0.721,0.319,0.564,0.524,��쐼,5.7,��
2024/05/07,04:00,0.522,0.795,0.498,0.994,0.720,0.320,0.563,0.525,��,5.2,�L
2024/05/07,04:10,0.520,0.794,0.497,0.994,0.719,0.318,0.563,0.524,��,6.7,�L
2024/05/07,04:20,0.522,0.795,0.497,0.994,0.719,0.318,0.563,0.523,��쐼,11.3,�L
2024/05/07,04:30,0.521,0.795,0.497,0.995,0.721,0.318,0.563,0.523,��쐼,9.7,�L
2024/05/07,04:40,0.522,0.794,0.498,0.995,0.718,0.320,0.562,0.524,�쐼,7.3,�L
2024/05/07,04:50,0.521,0.792,0.497,0.993,0.718,0.317,0.562,0.524,��쐼,7.6,�L
2024/05/07,05:00,0.519,0.790,0.498,0.995,0.717,0.319,0.562,0.524,�쐼,5.9,�L
2024/05/07,05:10,0.521,0.787,0.494,0.994,0.717,0.318,0.563,0.522,��,6.2,�L
2024/05/07,05:20,0.514,0.782,0.496,0.991,0.714,0.319,0.558,0.521,��,5.9,�L
2024/05/07,05:30,0.516,0.780,0.491,0.991,0.711,0.319,0.557,0.520,��,6.6,�L
2024/05/07,05:40,0.515,0.779,0.492,0.988,0.710,0.319,0.558,0.518,��,5.6,�L
2024/05/07,05:50,0.515,0.778,0.491,0.989,0.709,0.320,0.557,0.520,��,7.0,�L
2024/05/07,06:00,0.515,0.777,0.492,0.987,0.709,0.318,0.557,0.520,��쓌,6.7,�L
2024/05/07,06:10,0.515,0.779,0.491,0.988,0.707,0.319,0.557,0.520,��쓌,9.8,�L
2024/05/07,06:20,0.516,0.778,0.491,0.986,0.706,0.319,0.557,0.520,��쓌,8.3,�L
2024/05/07,06:30,0.514,0.778,0.491,0.987,0.706,0.318,0.556,0.520,��,7.4,�L
2024/05/07,06:40,0.514,0.778,0.490,0.987,0.708,0.317,0.557,0.522,��,9.2,�L
2024/05/07,06:50,0.512,0.778,0.491,0.986,0.706,0.318,0.558,0.523,��,9.7,�L
2024/05/07,07:00,0.513,0.776,0.490,0.984,0.706,0.316,0.559,0.521,��,10.5,�L
2024/05/07,07:10,0.511,0.776,0.489,0.984,0.707,0.316,0.557,0.520,��,9.9,�L
2024/05/07,07:20,0.511,0.779,0.489,0.985,0.705,0.317,0.555,0.520,��,9.1,�L
2024/05/07,07:30,0.510,0.775,0.489,0.982,0.704,0.316,0.554,0.519,��,10.0,�L
2024/05/07,07:40,0.508,0.774,0.487,0.982,0.704,0.317,0.557,0.517,��쓌,9.4,�L
2024/05/07,07:50,0.509,0.776,0.488,0.982,0.702,0.316,0.557,0.519,��쓌,9.0,�L
2024/05/07,08:00,0.509,0.771,0.487,0.981,0.701,0.316,0.556,0.517,��,9.6,�L
2024/05/07,08:10,0.510,0.772,0.488,0.983,0.703,0.316,0.557,0.518,��,9.0,�L
2024/05/07,08:20,0.510,0.772,0.488,0.983,0.701,0.315,0.557,0.519,��,10.0,�L
2024/05/07,08:30,0.509,0.775,0.488,0.981,0.703,0.314,0.557,0.518,��,10.5,�L
2024/05/07,08:40,0.509,0.771,0.486,0.981,0.700,0.315,0.556,0.519,��,11.4,�L
2024/05/07,08:50,0.508,0.771,0.487,0.981,0.702,0.315,0.557,0.519,��,11.3,�L
2024/05/07,09:00,0.508,0.771,0.486,0.982,0.701,0.315,0.559,0.520,��,10.3,�L
2024/05/07,09:10,0.508,0.773,0.487,0.982,0.701,0.316,0.557,0.519,��쐼,8.8,�L
2024/05/07,09:20,0.507,0.768,0.486,0.983,0.701,0.316,0.556,0.518,��쐼,8.7,�L
2024/05/07,09:30,0.508,0.770,0.487,0.981,0.701,0.313,0.558,0.518,��,9.1,�L
2024/05/07,09:40,0.506,0.768,0.486,0.981,0.700,0.315,0.557,0.517,��,8.3,�L
2024/05/07,09:50,0.504,0.764,0.485,0.978,0.694,0.313,0.555,0.516,��,7.9,�L
2024/05/07,10:00,0.503,0.760,0.485,0.976,0.691,0.312,0.554,0.515,��쐼,10.5,�L
2024/05/07,10:10,0.502,0.762,0.482,0.973,0.693,0.313,0.554,0.516,��,9.1,�L
2024/05/07,10:20,0.503,0.763,0.480,0.973,0.693,0.312,0.554,0.517,��,8.6,�L
2024/05/07,10:30,0.502,0.759,0.481,0.973,0.692,0.314,0.553,0.516,��,9.8,�L
2024/05/07,10:40,0.500,0.757,0.480,0.970,0.689,0.312,0.552,0.515,��,8.1,�L
2024/05/07,10:50,0.501,0.757,0.481,0.967,0.687,0.312,0.552,0.513,��,9.0,�L
2024/05/07,11:00,0.500,0.756,0.481,0.970,0.687,0.312,0.551,0.514,��,9.3,�L
2024/05/07,11:10,0.501,0.756,0.482,0.966,0.690,0.313,0.551,0.514,��,9.3,�L
2024/05/07,11:20,0.501,0.756,0.480,0.967,0.689,0.313,0.551,0.515,��,10.2,�L
2024/05/07,11:30,0.500,0.757,0.479,0.965,0.688,0.312,0.551,0.514,��,8.9,�L
2024/05/07,11:40,0.499,0.757,0.482,0.966,0.687,0.312,0.551,0.515,��쓌,11.1,��
2024/05/07,11:50,0.502,0.758,0.481,0.965,0.689,0.311,0.553,0.515,��,11.7,��
2024/05/07,12:00,0.501,0.757,0.483,0.964,0.689,0.312,0.553,0.514,��,10.3,��
2024/05/07,12:10,0.502,0.759,0.481,0.965,0.688,0.311,0.552,0.514,��,9.6,�L
2024/05/07,12:20,0.501,0.759,0.479,0.966,0.689,0.312,0.553,0.514,��쓌,10.0,�L
2024/05/07,12:30,0.500,0.758,0.480,0.964,0.690,0.310,0.552,0.515,��쓌,10.2,��
2024/05/07,12:40,0.501,0.759,0.480,0.965,0.688,0.312,0.552,0.514,��,10.7,��
2024/05/07,12:50,0.501,0.758,0.480,0.964,0.689,0.312,0.553,0.514,��,10.2,�L
2024/05/07,13:00,0.500,0.759,0.479,0.964,0.689,0.312,0.551,0.515,��,9.5,�L
2024/05/07,13:10,0.499,0.757,0.479,0.965,0.687,0.311,0.551,0.515,��,11.6,�L
2024/05/07,13:20,0.501,0.758,0.479,0.965,0.690,0.312,0.553,0.515,��,11.3,�L
2024/05/07,13:30,0.501,0.759,0.480,0.965,0.690,0.310,0.554,0.514,��,10.5,�L
2024/05/07,13:40,0.501,0.758,0.481,0.967,0.691,0.312,0.552,0.515,��,8.8,�L
2024/05/07,13:50,0.502,0.759,0.479,0.966,0.690,0.312,0.552,0.514,��,8.8,�L
2024/05/07,14:00,0.500,0.759,0.479,0.967,0.690,0.310,0.553,0.513,��,8.0,�L
2024/05/07,14:10,0.501,0.760,0.479,0.966,0.689,0.311,0.553,0.514,��,9.6,�L
2024/05/07,14:20,0.500,0.760,0.479,0.969,0.693,0.313,0.551,0.516,��,8.9,�L
2024/05/07,14:30,0.501,0.760,0.479,0.966,0.690,0.311,0.552,0.515,��쓌,9.4,�L
2024/05/07,14:40,0.503,0.762,0.483,0.967,0.690,0.309,0.553,0.515,��,10.9,�L
2024/05/07,14:50,0.503,0.761,0.480,0.964,0.693,0.312,0.553,0.516,��,8.3,��
2024/05/07,15:00,0.503,0.760,0.482,0.965,0.691,0.313,0.553,0.515,��,7.6,��
2024/05/07,15:10,0.502,0.759,0.481,0.969,0.692,0.310,0.553,0.517,��,9.4,�L
2024/05/07,15:20,0.502,0.762,0.484,0.965,0.692,0.311,0.551,0.516,��,7.3,�L
2024/05/07,15:30,0.502,0.759,0.481,0.967,0.690,0.313,0.553,0.516,��,7.4,�L
2024/05/07,15:40,0.502,0.762,0.481,0.965,0.691,0.313,0.555,0.516,��,7.7,�L
2024/05/07,15:50,0.503,0.761,0.481,0.969,0.689,0.313,0.554,0.516,��쐼,8.4,��
2024/05/07,16:00,0.503,0.761,0.481,0.967,0.690,0.313,0.554,0.515,��,10.5,�L
2024/05/07,16:10,0.504,0.760,0.482,0.967,0.691,0.312,0.554,0.515,��,11.8,�L
2024/05/07,16:20,0.503,0.761,0.481,0.971,0.691,0.312,0.553,0.514,��,10.5,�L
2024/05/07,16:30,0.502,0.761,0.484,0.967,0.691,0.313,0.554,0.515,��,9.5,�L
2024/05/07,16:40,0.503,0.763,0.482,0.967,0.693,0.312,0.554,0.516,��,8.6,�L
2024/05/07,16:50,0.504,0.761,0.481,0.966,0.691,0.313,0.555,0.514,��,8.6,�L
2024/05/07,17:00,0.501,0.761,0.483,0.967,0.692,0.312,0.552,0.514,��,10.0,�L
2024/05/07,17:10,0.502,0.758,0.479,0.967,0.687,0.312,0.551,0.513,��,8.5,�L
2024/05/07,17:20,0.498,0.755,0.478,0.965,0.684,0.312,0.550,0.512,��,9.8,�L
2024/05/07,17:30,0.499,0.752,0.476,0.963,0.682,0.310,0.550,0.513,��,8.2,�L
2024/05/07,17:40,0.498,0.751,0.477,0.961,0.683,0.313,0.548,0.510,��,9.6,�L
2024/05/07,17:50,0.498,0.753,0.477,0.960,0.683,0.313,0.548,0.511,��,10.0,�L
2024/05/07,18:00,0.498,0.753,0.477,0.960,0.683,0.311,0.547,0.511,��,8.9,�L
2024/05/07,18:10,0.496,0.753,0.478,0.961,0.682,0.311,0.547,0.512,��,7.5,�L
2024/05/07,18:20,0.498,0.752,0.478,0.961,0.680,0.311,0.549,0.511,��,7.5,�L
2024/05/07,18:30,0.495,0.751,0.478,0.956,0.679,0.310,0.547,0.511,��,7.6,�L
2024/05/07,18:40,0.491,0.746,0.475,0.950,0.674,0.309,0.545,0.510,��,6.0,�L
2024/05/07,18:50,0.490,0.743,0.474,0.945,0.671,0.308,0.544,0.507,��,6.0,�L
2024/05/07,19:00,0.488,0.742,0.474,0.943,0.671,0.310,0.544,0.508,��,5.6,�L
2024/05/07,19:10,0.491,0.745,0.476,0.945,0.671,0.310,0.545,0.509,��쐼,5.7,�L
2024/05/07,19:20,0.492,0.745,0.475,0.942,0.673,0.309,0.545,0.508,�쐼,3.9,�L
2024/05/07,19:30,0.493,0.745,0.476,0.942,0.673,0.310,0.545,0.510,��,3.6,��
2024/05/07,19:40,0.492,0.747,0.476,0.943,0.673,0.312,0.545,0.512,��,4.7,��
2024/05/07,19:50,0.494,0.745,0.477,0.942,0.674,0.310,0.546,0.508,���k��,6.2,��
2024/05/07,20:00,0.493,0.748,0.477,0.943,0.674,0.311,0.545,0.510,���k��,6.8,�L
2024/05/07,20:10,0.494,0.749,0.477,0.943,0.675,0.311,0.546,0.508,���k��,6.3,�L
2024/05/07,20:20,0.495,0.748,0.477,0.943,0.674,0.311,0.545,0.510,�k��,5.2,�L
2024/05/07,20:30,0.496,0.747,0.478,0.941,0.674,0.311,0.544,0.509,�k��,5.3,�L
2024/05/07,20:40,0.494,0.747,0.479,0.942,0.674,0.310,0.544,0.508,�k��,4.6,�L
2024/05/07,20:50,0.494,0.749,0.478,0.942,0.673,0.309,0.547,0.508,�k��,4.2,�L
2024/05/07,21:00,0.495,0.749,0.477,0.944,0.675,0.310,0.545,0.509,�k��,4.6,�L
2024/05/07,21:10,0.493,0.749,0.477,0.942,0.673,0.310,0.545,0.510,�k��,6.0,�L
2024/05/07,21:20,0.495,0.750,0.477,0.943,0.674,0.310,0.547,0.509,�k��,6.4,��
2024/05/07,21:30,0.493,0.749,0.477,0.942,0.676,0.310,0.547,0.510,�k��,6.1,��
2024/05/07,21:40,0.494,0.749,0.478,0.944,0.674,0.310,0.545,0.510,���k��,6.9,�L
2024/05/07,21:50,0.493,0.749,0.477,0.941,0.673,0.311,0.546,0.511,���k��,6.1,�L
2024/05/07,22:00,0.494,0.749,0.478,0.943,0.674,0.311,0.545,0.511,���k��,5.7,�L
2024/05/07,22:10,0.493,0.749,0.477,0.943,0.676,0.311,0.546,0.509,���k��,3.8,�L
2024/05/07,22:20,0.494,0.750,0.478,0.942,0.675,0.311,0.545,0.510,�k��,2.5,�L
2024/05/07,22:30,0.495,0.750,0.477,0.944,0.675,0.313,0.543,0.510,���k��,1.7,�L
2024/05/07,22:40,0.496,0.748,0.478,0.944,0.673,0.312,0.543,0.509,��,1.2,�L
2024/05/07,22:50,0.494,0.747,0.477,0.944,0.673,0.313,0.546,0.509,���쐼,1.1,�L
2024/05/07,23:00,0.496,0.748,0.478,0.944,0.674,0.313,0.546,0.509,���k��,2.8,�L
2024/05/07,23:10,0.494,0.747,0.476,0.942,0.674,0.313,0.545,0.509,���k��,3.6,�L
2024/05/07,23:20,0.494,0.748,0.477,0.944,0.674,0.312,0.545,0.508,���k��,3.0,�L
2024/05/07,23:30,0.493,0.747,0.477,0.944,0.673,0.312,0.545,0.510,���k��,2.3,�L
2024/05/07,23:40,0.494,0.748,0.479,0.943,0.671,0.312,0.544,0.510,�k��,1.4,�L
2024/05/07,23:50,0.495,0.746,0.477,0.944,0.673,0.314,0.544,0.510,�k�k��,2.0,�L
